Flag for Germany Weather past 2 weeks in Olpe, North Rhine-Westphalia, Germany

Now
34 °F

Partly cloudy.


Feels Like: 25 °F
Forecast: 31 / 38 °F
Wind: 13 mph from West

Location: Hessen

Current Time: Mar 3, 2015 at 11:49:46 PM

Latest Report: Mar 3, 2015 at 8:50 PM


Visibility: N/A

Pressure: 29.98 "Hg

Humidity: 100%

Dew point: 34 °F

Location of OlpeLocation

Historic Weather in Olpe — Graph

°F

Olpe temperature yesterday

Maximum temperature yesterday: 39 °F (at 2:20 PM)
Minimum temperature yesterday: 32 °F (at 9:50 AM)
Average temperature yesterday: 35 °F

Past Weeks' High & Low Weather Summary

 TemperatureHumidityPressure
High88 °F (Feb 19, 5:50 PM)100% (Feb 16, 8:20 PM)30.69 "Hg (Feb 16, 8:20 PM)
Low27 °F (Feb 19, 7:20 AM)60% (Feb 22, 2:20 PM)29.36 "Hg (Feb 21, 7:50 AM)
Average34 °F92%29.93 "Hg
* Reported Feb 16 8:20 PM — Mar 3 8:50 PM, Olpe, Weather by CustomWeather, © 2015

Note: Actual official high and low records may vary slightly from our data, if they occured in-between our weather recording intervals... More about our weather records

Advertising

Olpe weather history for previous 24 hours

 ConditionsComfort  
Time TempWeatherWind HumidityBarometerVisibility
8:50 PM
Tue, Mar 3
34 °FPartly cloudy.13 mph100%29.98 "HgN/A
8:20 PM34 °FPartly cloudy.10 mph100%29.98 "HgN/A
7:50 PM34 °FPassing clouds.12 mph100%29.98 "HgN/A
7:20 PM34 °FSprinkles. Passing clouds.15 mph100%29.98 "Hg4 mi
6:50 PM34 °FSnow flurries. Partly cloudy.14 mph100%29.98 "Hg3 mi
6:20 PM36 °FSprinkles. Partly cloudy.22 mph93%29.95 "Hg5 mi
5:50 PM39 °FSprinkles. Partly sunny.17 mph75%29.95 "HgN/A
5:20 PM39 °FSprinkles. Broken clouds.18 mph75%29.95 "HgN/A
4:50 PM41 °FSprinkles. Partly sunny.15 mph66%29.92 "HgN/A
4:20 PM41 °FPartly sunny.17 mph66%29.95 "HgN/A
3:50 PM41 °FSprinkles. Broken clouds.17 mph66%29.95 "HgN/A
3:20 PM41 °FBroken clouds.18 mph66%29.98 "HgN/A
2:50 PM41 °FScattered clouds.16 mph66%29.98 "HgN/A
2:20 PM41 °FPartly sunny.14 mph66%29.98 "HgN/A
1:50 PM39 °FPartly sunny.14 mph70%30.01 "HgN/A
1:20 PM37 °FPartly sunny.14 mph75%30.01 "HgN/A
12:50 PM37 °FPartly sunny.14 mph75%30.04 "HgN/A
12:20 PM36 °FPartly sunny.16 mph81%30.04 "HgN/A
11:50 AM37 °FScattered clouds.16 mph75%30.04 "HgN/A
10:50 AM36 °FSunny.13 mph75%30.04 "Hg10 mi
10:20 AM34 °FPassing clouds.15 mph87%30.04 "HgN/A
9:50 AM34 °FPassing clouds.15 mph81%30.04 "HgN/A
9:20 AM32 °FScattered clouds.17 mph87%30.04 "HgN/A
8:50 AM30 °FPassing clouds.18 mph93%30.04 "HgN/A
8:20 AM30 °FPassing clouds.17 mph93%30.04 "HgN/A
7:50 AM30 °FPassing clouds.16 mph93%30.04 "HgN/A
Weather by CustomWeather, © 2015

See weather overviewHow to use our weather pages